DW7759 Weather Reports


time (UTC)temp
C
wind
direction
speed
KPH
gust
KPH
rain 1hr
cm
rain 24hr
cm
rain mn
cm
humidity
%
barometer
mb
20260503173911 22 230 0.0 0.0 0.00 0.00 0.00 54 1012.7
20260503173352 22 230 0.0 1.6 0.00 0.00 0.00 53 1012.8
20260503172902 21 231 0.0 0.0 0.00 0.00 0.00 58 1012.8
20260503172346 21 231 0.0 1.6 0.00 0.00 0.00 57 1012.9
20260503170619 18 231 0.0 0.0 0.00 0.00 0.00 62 1013.0
20260503150752 9 229 0.0 0.0 0.00 0.00 0.00 85 1013.8
20260503140150 5 210 0.0 0.0 0.00 0.00 0.00 89 1013.6
20260503131002 3 225 0.0 0.0 0.00 0.00 0.00 89 1013.3
20260503130449 3 225 0.0 0.0 0.00 0.00 0.00 89 1013.3
20260503100121 6 213 0.0 0.0 0.00 0.00 0.00 85 1013.3
20260503090424 7 202 0.0 1.6 0.00 0.00 0.00 80 1013.1
20260503081307 8 242 0.0 3.2 0.00 0.00 0.00 79 1013.0
20260503080756 9 242 0.0 0.0 0.00 0.00 0.00 78 1012.8
20260503080258 9 242 0.0 0.0 0.00 0.00 0.00 77 1012.9
20260503072742 10 242 0.0 0.0 0.00 0.00 0.00 77 1013.0
20260503072237 10 242 0.0 0.0 0.00 0.00 0.00 76 1013.0
20260503071740 10 242 0.0 0.0 0.00 0.00 0.00 76 1013.0
20260503071238 10 242 0.0 0.0 0.00 0.00 0.00 76 1013.0
20260503070734 10 242 0.0 0.0 0.00 0.00 0.00 76 1013.0
20260503070225 10 242 0.0 0.0 0.00 0.00 0.00 76 1013.0
20260503054219 12 351 0.0 0.0 0.00 0.00 0.00 71 1012.8
20260503053719 12 351 0.0 0.0 0.00 0.00 0.00 71 1012.8
20260503053205 12 351 0.0 4.8 0.00 0.00 0.00 70 1012.8
20260503052707 12 355 0.0 1.6 0.00 0.00 0.00 70 1012.8
20260503052155 12 355 0.0 4.8 0.00 0.00 0.00 69 1012.8
20260503051701 11 350 0.0 3.2 0.00 0.00 0.00 72 1012.6
20260503050526 12 349 0.0 0.0 0.00 0.00 0.00 71 1012.6
20260503050035 12 349 0.0 0.0 0.00 0.00 0.00 69 1012.5
20260503045544 13 349 0.0 0.0 0.00 0.00 0.00 67 1012.5
20260503045039 13 349 0.0 0.0 0.00 0.00 0.00 67 1012.5
20260503044525 13 349 0.0 0.0 0.00 0.00 0.00 66 1012.5
20260503044034 14 349 0.0 0.0 0.00 0.00 0.00 64 1012.4
20260503043536 14 349 0.0 0.0 0.00 0.00 0.00 63 1012.4
20260503042410 15 349 0.0 0.0 0.00 0.00 0.00 61 1012.2
20260503041858 15 349 0.0 0.0 0.00 0.00 0.00 61 1012.0
20260503041347 16 349 0.0 0.0 0.00 0.00 0.00 59 1012.0
20260503040841 16 349 0.0 0.0 0.00 0.00 0.00 59 1011.8
20260503040348 16 349 0.0 0.0 0.00 0.00 0.00 58 1011.7
20260503035838 17 349 0.0 0.0 0.00 0.00 0.00 56 1011.6
20260503035327 17 349 0.0 0.0 0.00 0.00 0.00 54 1011.6
20260503034220 18 355 0.0 0.0 0.00 0.00 0.00 53 1011.5
20260503033726 18 355 0.0 0.0 0.00 0.00 0.00 50 1011.5
20260503033224 20 355 0.0 0.0 0.00 0.00 0.00 48 1011.4
20260503032721 20 355 0.0 0.0 0.00 0.00 0.00 49 1011.4
20260503032220 21 355 0.0 0.0 0.00 0.00 0.00 44 1011.3
20260503031714 22 355 0.0 0.0 0.00 0.00 0.00 40 1011.2
20260503031156 22 355 0.0 0.0 0.00 0.00 0.00 39 1011.1
20260503030649 23 355 0.0 0.0 0.00 0.00 0.00 38 1011.1
20260503030131 23 355 0.0 0.0 0.00 0.00 0.00 34 1010.9
20260503025004 23 355 0.0 3.2 0.00 0.00 0.00 33 1010.9
20260503024509 23 355 0.0 8.0 0.00 0.00 0.00 34 1010.8
20260503023956 23 355 1.6 8.0 0.00 0.00 0.00 33 1010.8
20260503023450 23 355 3.2 12.9 0.00 0.00 0.00 33 1010.7
20260503022936 23 349 3.2 12.9 0.00 0.00 0.00 33 1010.6
20260503022424 23 5 4.8 12.9 0.00 0.00 0.00 33 1010.6
20260503021305 23 5 1.6 9.7 0.00 0.00 0.00 35 1010.6
20260503020748 23 25 3.2 14.5 0.00 0.00 0.00 34 1010.6
20260503015622 24 24 4.8 14.5 0.00 0.00 0.00 35 1010.6
20260503015128 24 22 3.2 14.5 0.00 0.00 0.00 33 1010.7
20260503014614 24 9 4.8 12.9 0.00 0.00 0.00 34 1010.5
20260503014115 24 36 4.8 12.9 0.00 0.00 0.00 33 1010.6
20260503012944 25 57 9.7 17.7 0.00 0.00 0.00 32 1010.6
20260503012430 25 355 8.0 17.7 0.00 0.00 0.00 31 1010.6
20260503011916 25 355 6.4 17.7 0.00 0.00 0.00 30 1010.5
20260503011413 25 18 6.4 17.7 0.00 0.00 0.00 32 1010.5
20260503010905 25 14 6.4 17.7 0.00 0.00 0.00 30 1010.5
20260503010412 25 16 8.0 22.5 0.00 0.00 0.00 32 1010.5
20260503005902 25 42 11.3 22.5 0.00 0.00 0.00 30 1010.6
20260503005346 25 34 11.3 22.5 0.00 0.00 0.00 30 1010.6
20260503004841 25 59 9.7 22.5 0.00 0.00 0.00 30 1010.5
20260503004331 25 15 9.7 22.5 0.00 0.00 0.00 30 1010.6
20260503003840 25 59 8.0 22.5 0.00 0.00 0.00 30 1010.6
20260503003338 25 55 8.0 22.5 0.00 0.00 0.00 30 1010.6
20260503002825 25 57 4.8 17.7 0.00 0.00 0.00 30 1010.6
20260503002320 25 22 3.2 17.7 0.00 0.00 0.00 30 1010.5
20260503001826 25 51 4.8 17.7 0.00 0.00 0.00 30 1010.5
20260503001328 25 53 6.4 17.7 0.00 0.00 0.00 30 1010.6
20260503000810 25 49 6.4 17.7 0.00 0.00 0.00 30 1010.5
20260503000256 25 40 8.0 20.9 0.00 0.00 0.00 30 1010.5
20260502235750 25 33 8.0 20.9 0.00 0.00 0.00 28 1010.5
20260502235234 25 49 9.7 22.5 0.00 0.00 0.00 30 1010.5
20260502234716 25 26 6.4 22.5 0.00 0.00 0.00 31 1010.5
20260502234225 25 16 4.8 22.5 0.00 0.00 0.00 33 1010.6
20260502233717 25 59 4.8 22.5 0.00 0.00 0.00 30 1010.6
20260502233206 25 57 3.2 16.1 0.00 0.00 0.00 30 1010.6
20260502232655 25 53 4.8 16.1 0.00 0.00 0.00 32 1010.6
20260502232144 25 65 6.4 16.1 0.00 0.00 0.00 30 1010.6
20260502231641 25 53 4.8 17.7 0.00 0.00 0.00 32 1010.7
20260502231143 25 76 6.4 17.7 0.00 0.00 0.00 32 1011.0
20260502230651 25 13 8.0 17.7 0.00 0.00 0.00 31 1010.9
20260502225542 25 355 4.8 16.1 0.00 0.00 0.00 32 1010.9
20260502225034 25 19 3.2 12.9 0.00 0.00 0.00 32 1010.9
20260502223915 25 13 8.0 16.1 0.00 0.00 0.00 31 1011.1
20260502221458 26 355 11.3 29.0 0.00 0.00 0.00 31 1011.6
20260502220941 25 318 9.7 29.0 0.00 0.00 0.00 34 1011.5
20260502220438 25 29 8.0 24.1 0.00 0.00 0.00 33 1011.5
20260502215325 25 331 11.3 25.7 0.00 0.00 0.00 33 1011.6
20260502214207 24 52 9.7 25.7 0.00 0.00 0.00 36 1011.7
20260502213703 24 55 6.4 20.9 0.00 0.00 0.00 38 1011.6
20260502213151 23 25 6.4 20.9 0.00 0.00 0.00 38 1011.7
20260502211416 22 24 0.0 12.9 0.00 0.00 0.00 45 1011.9
20260502210910 22 205 0.0 0.0 0.00 0.00 0.00 44 1012.1
20260502210400 23 205 4.8 9.7 0.00 0.00 0.00 44 1012.3
20260502205849 23 203 3.2 9.7 0.00 0.00 0.00 46 1012.3
20260502205340 23 200 1.6 11.3 0.00 0.00 0.00 42 1012.3
20260502204822 24 233 1.6 11.3 0.00 0.00 0.00 38 1012.4
20260502204331 24 204 1.6 19.3 0.00 0.00 0.00 41 1012.4
20260502203821 25 213 3.2 19.3 0.00 0.00 0.00 42 1012.3
20260502203303 25 200 8.0 19.3 0.00 0.00 0.00 40 1012.3
20260502202808 25 211 6.4 19.3 0.00 0.00 0.00 40 1012.4
20260502201650 25 17 6.4 17.7 0.00 0.00 0.00 35 1012.4
20260502201140 24 54 4.8 17.7 0.00 0.00 0.00 34 1012.4
20260502200013 23 44 4.8 16.1 0.00 0.00 0.00 34 1012.5
20260502195519 23 42 4.8 16.1 0.00 0.00 0.00 34 1012.5
20260502195027 23 53 3.2 14.5 0.00 0.00 0.00 35 1012.6
20260502194530 23 46 4.8 14.5 0.00 0.00 0.00 36 1012.6
20260502194017 23 37 6.4 17.7 0.00 0.00 0.00 35 1012.7
20260502193506 23 55 4.8 17.7 0.00 0.00 0.00 33 1012.6
20260502193005 23 55 3.2 20.9 0.00 0.00 0.00 36 1012.5
20260502191843 23 0 8.0 30.6 0.00 0.00 0.00 34 1012.6
20260502191325 23 21 8.0 30.6 0.00 0.00 0.00 35 1012.6
20260502190204 23 299 4.8 17.7 0.00 0.00 0.00 35 1012.5
20260502185652 23 61 6.4 17.7 0.00 0.00 0.00 37 1012.4
20260502184528 22 38 9.7 25.7 0.00 0.00 0.00 37 1012.4
20260502184011 22 61 11.3 27.4 0.00 0.00 0.00 38 1012.3
20260502182835 22 63 14.5 30.6 0.00 0.00 0.00 37 1012.3
20260502182315 22 67 12.9 32.2 0.00 0.00 0.00 40 1012.2
20260502181802 22 0 11.3 32.2 0.00 0.00 0.00 38 1012.2
20260502181259 21 36 14.5 32.2 0.00 0.00 0.00 41 1012.2
20260502180752 21 52 12.9 32.2 0.00 0.00 0.00 40 1012.3
20260502180254 21 27 11.3 24.1 0.00 0.00 0.00 40 1012.3